Location: ???????
(38.3360°N, 23.6977°E)
Time: 00:10:12
(UTC+00:00)

Cosmos 1862 - Visible Passes

Search period start: 16 February 2026 00:00
Search period end: 26 February 2026 00:00
Orbit: 468 x 483 km, 82.5° (Epoch: 15 February)

Date Brightness Start Highest point End Pass type
(mag) Time Alt. Az. Time Alt. Az. Time Alt. Az.
16 Feb 3.9 04:34:46 10° N 04:38:16 53° E 04:41:47 10° SSE visible
16 Feb 4.5 16:42:28 10° SE 16:44:50 17° E 16:47:11 10° NE visible
16 Feb 5.5 18:16:38 10° SW 18:19:30 22° WNW 18:22:23 10° NNW visible
17 Feb 5.3 04:07:31 10° NNE 04:10:39 28° ENE 04:13:48 10° SE visible
17 Feb 4.3 17:48:28 10° SSW 17:51:51 40° W 17:55:15 10° N visible
18 Feb 6.2 03:40:38 10° NNE 03:42:58 16° ENE 03:45:18 10° ESE visible
18 Feb 3.0 17:20:41 10° S 17:24:15 80° W 17:27:50 10° N visible
19 Feb 3.1 16:53:14 10° S 16:56:42 51° E 17:00:10 10° NNE visible
20 Feb 3.0 04:19:11 10° N 04:22:47 87° WSW 04:26:22 10° S visible
20 Feb 6.3 18:02:05 10° WSW 18:04:05 14° WNW 18:06:06 10° NW visible
21 Feb 4.1 03:51:41 10° N 03:55:10 47° E 03:58:38 10° SSE visible
21 Feb 5.5 17:33:22 10° SW 17:36:20 25° WNW 17:39:20 10° NNW visible
22 Feb 5.4 03:24:25 10° NNE 03:27:29 26° ENE 03:30:32 10° SE visible
22 Feb 4.2 17:05:13 10° SSW 17:08:39 45° W 17:12:05 10° N visible
23 Feb 6.2 02:57:36 10° NE 02:59:44 15° ENE 03:01:51 10° ESE visible
23 Feb 4.0 04:31:34 10° NNW 04:34:37 26° W 04:37:39 10° SSW visible
23 Feb 3.0 16:37:27 10° S 16:41:00 90° E 16:44:34 10° N visible
24 Feb 3.2 04:03:35 10° NNW 04:07:04 49° W 04:10:32 10° S visible
25 Feb 3.0 03:35:51 10° N 03:39:27 83° E 03:43:02 10° S visible
25 Feb 6.2 17:18:27 10° WSW 17:20:41 16° WNW 17:22:57 10° NW visible
